カタログに戻る

INMARSAT 2-F3

運用中通信GEO
NORAD 21814·PAYLOAD·🇮🇲 IM

打ち上げ Dec 16, 1991 から Guiana Space Centre

Loading…

TLE

最新Source: Space-Track

元期: Sep 14, 2026, 13:21 UTC

1 21814U 91084B   26257.55657808 -.00000165  00000-0  00000-0 0  9997
2 21814  14.2095  12.8593 0012770  91.6097 235.2027  0.96062354124021

AllMySatでINMARSAT 2-F3をリアルタイム追跡

Download on the App Store